Weather History for KPSM - May, 2013

Change the Weather History Date:

Monday, May 20, 2013

  Actual Average Record
Temperature  
Mean Temperature 64 °F -  
Max Temperature 78 °F 63 °F - (-1)
Min Temperature 50 °F 44 °F - (-1)
Degree Days  
Heating Degree Days 2    
Growing Degree Days 14 (Base 50)    
Moisture  
Dew Point 57 °F    
Average Humidity 87    
Maximum Humidity 100    
Minimum Humidity 57    
Precipitation  
Precipitation 0.07 in - - ()
Sea Level Pressure  
Sea Level Pressure 30.03 in    
Wind  
Wind Speed 6 mph (SSW)    
Max Wind Speed 12 mph    
Max Gust Speed -    
Visibility 6 miles    
Events Fog , Rain    
Averages and records for this station are not official NWS values.
T = Trace of Precipitation, MM = Missing Value Source: NWS Daily Summary

Daily Weather History Graph

Daily Weather History Graph

Search for Another Location

Airport or City:

Trip Planner

Search our weather history database for the weather conditions in past years. The results will help you decide how hot, cold, wet, or windy it might be!

Date:

Astronomy

May. 20, 2013 Rise Set
Actual Time 5:14 AM EDT 8:05 PM EDT
Civil Twilight 4:41 AM EDT 8:38 PM EDT
Nautical Twilight 3:59 AM EDT 9:21 PM EDT
Astronomical Twilight 3:10 AM EDT 10:10 PM EDT
Moon 3:02 PM EDT (5/20) 2:16 AM EDT (5/20)
Length of Visible Light 15h 57m
Length of Day
14h 50m
Waxing Gibbous, 75% of the Moon is Illuminated
May 20
Waxing Gibbous
May 25
Full
May 31
Last Quarter
Jun 8
New
Jun 16
First Quarter

Hourly Weather History & Observations

Time (EDT) Temp. Dew Point Humidity Pressure Visibility Wind Dir Wind Speed Gust Speed Precip Events Conditions
12:58 AM 50.2 °F 50.0 °F 99% 30.20 in 2.0 mi East 5.8 mph - 0.02 in   Light Drizzle
1:30 AM 50.0 °F 50.0 °F 100% 30.16 in 0.8 mi ESE 5.8 mph - N/A Rain Light Rain
1:58 AM 51.6 °F 51.3 °F 99% 30.17 in 0.8 mi ESE 4.6 mph - 0.03 in Rain Light Rain
2:43 AM 53.6 °F 53.6 °F 100% 30.13 in 2.0 mi SSE 6.9 mph - N/A   Overcast
2:58 AM 53.6 °F 53.6 °F 100% 30.13 in 1.5 mi SSE 8.1 mph - 0.01 in   Light Drizzle
3:58 AM 54.7 °F 54.7 °F 100% 30.10 in 1.5 mi South 5.8 mph - 0.00 in   Light Drizzle
4:58 AM 54.5 °F 54.5 °F 100% 30.08 in 1.2 mi SSE 3.5 mph - N/A   Light Drizzle
5:10 AM 55.4 °F 55.4 °F 100% 30.06 in 0.8 mi SSE 3.5 mph - N/A   Light Drizzle
5:31 AM 55.4 °F 55.4 °F 100% 30.06 in 0.5 mi SSE 2.3 mph - N/A Fog Light Drizzle
5:58 AM 55.0 °F 55.0 °F 100% 30.06 in 0.5 mi SSE 2.3 mph - 0.01 in Fog Light Drizzle
6:58 AM 56.3 °F 56.3 °F 100% 30.04 in 0.5 mi South 5.8 mph - 0.00 in Fog Fog
7:13 AM 57.2 °F 57.2 °F 100% 30.04 in 1.0 mi SSW 4.6 mph - N/A   Overcast
7:28 AM 57.2 °F 57.2 °F 100% 30.04 in 2.0 mi South 6.9 mph - N/A   Overcast
7:43 AM 57.2 °F 57.2 °F 100% 30.03 in 4.0 mi SSW 6.9 mph - N/A   Overcast
7:58 AM 57.7 °F 57.7 °F 100% 30.05 in 7.0 mi SSW 4.6 mph - N/A   Overcast
8:30 AM 60.8 °F 60.8 °F 100% 30.03 in 10.0 mi SSW 8.1 mph - N/A   Mostly Cloudy
8:58 AM 61.5 °F 60.4 °F 96% 30.03 in 10.0 mi WSW 6.9 mph - N/A   Mostly Cloudy
9:58 AM 63.0 °F 59.5 °F 89% 30.03 in 10.0 mi West 5.8 mph - N/A   Overcast
10:28 AM 62.6 °F 59.0 °F 88% 30.00 in 10.0 mi WSW 5.8 mph - N/A   Mostly Cloudy
10:58 AM 67.1 °F 60.1 °F 78% 30.00 in 10.0 mi WSW 8.1 mph - N/A   Mostly Cloudy
11:58 AM 70.3 °F 60.3 °F 70% 29.99 in 10.0 mi WSW 5.8 mph - N/A   Mostly Cloudy
12:58 PM 73.2 °F 61.0 °F 65% 29.96 in 10.0 mi West 8.1 mph - N/A   Mostly Cloudy
1:58 PM 76.3 °F 61.3 °F 60% 29.94 in 10.0 mi WSW 9.2 mph - N/A   Mostly Cloudy
2:58 PM 76.5 °F 61.3 °F 59% 29.94 in 10.0 mi West 5.8 mph - N/A   Overcast
3:58 PM 77.0 °F 60.8 °F 57% 29.94 in 10.0 mi WNW 6.9 mph - N/A   Mostly Cloudy
4:58 PM 77.5 °F 61.0 °F 57% 29.93 in 10.0 mi Variable 5.8 mph - N/A   Mostly Cloudy
5:58 PM 75.7 °F 60.4 °F 59% 29.94 in 10.0 mi NNW 11.5 mph - N/A   Overcast
6:58 PM 73.4 °F 59.5 °F 62% 29.95 in 10.0 mi NW 9.2 mph - N/A   Mostly Cloudy
7:58 PM 69.8 °F 60.1 °F 71% 29.96 in 10.0 mi NW 5.8 mph - 0.00 in   Mostly Cloudy
8:58 PM 64.9 °F 59.0 °F 81% 29.98 in 10.0 mi ESE 3.5 mph - N/A   Mostly Cloudy
9:58 PM 59.4 °F 56.7 °F 91% 29.97 in 10.0 mi ESE 2.3 mph - N/A   Partly Cloudy
10:58 PM 57.4 °F 56.3 °F 96% 29.97 in 10.0 mi Calm Calm - N/A   Clear
11:58 PM 56.8 °F 55.9 °F 97% 29.99 in 10.0 mi NNE 1.2 mph - N/A   Partly Cloudy